This demonstration page uses our WeatherBlox Daily Observations layout. Learn more.

41.55636, -103.73856

Hourly Observations for May 1, 2015

Temp ( °F °C ) Dew Point ( °F °C ) Humidity (%) Winds ( mph kmh ) Pressure ( in mb ) Visibility ( mi km ) Precip ( " mm )
12:53 am 00:53 Mostly Cloudy 50 10 46 7.8 86 86 NW 5 7 30.03 1017 10 16.0934 0 0
1:53 am 01:53 Mostly Cloudy with Light Rain 50 10 45 7.2 83 83 NE 7 11 30.03 1017 10 16.0934 0.01 0.254
2:53 am 02:53 Mostly Cloudy 50 10 44 6.7 80 80 Calm 30.04 1017 10 16.0934 0 0.0254
3:53 am 03:53 Mostly Cloudy 48 8.9 42 5.6 80 80 SSW 5 7 30.05 1018 10 16.0934 0 0
4:53 am 04:53 Cloudy 48 8.9 43 6.1 83 83 N 3 6 30.06 1018 10 16.0934 0 0
5:53 am 05:53 Cloudy 47 8.3 43 6.1 86 86 N 3 6 30.08 1019 10 16.0934 0 0
6:53 am 06:53 Mostly Cloudy 49 9.4 45 7.2 86 86 NNE 3 6 30.08 1019 10 16.0934 0 0
7:53 am 07:53 Cloudy 53 11.7 44 6.7 72 72 Calm 30.08 1019 10 16.0934 0 0
8:53 am 08:53 Sunny 56 13.3 42 5.6 60 60 Calm 30.08 1019 10 16.0934 0 0
9:53 am 09:53 Sunny 59 15 42 5.6 54 54 VRB 3 6 30.08 1019 10 16.0934 0 0
10:53 am 10:53 Mostly Sunny 62 16.7 43 6.1 50 50 S 8 13 30.07 1018 10 16.0934 0 0
11:53 am 11:53 Sunny 64 17.8 43 6.1 46 46 S 3 6 30.06 1018 10 16.0934 0 0
12:53 pm 12:53 Sunny 68 20 46 7.8 45 45 VRB 5 7 30.03 1017 10 16.0934 0 0
1:53 pm 13:53 Mostly Cloudy 68 20 47 8.3 47 47 VRB 6 9 29.99 1016 10 16.0934 0 0
2:53 pm 14:53 Partly Cloudy 69 20.6 46 7.8 44 44 E 6 9 29.96 1014 10 16.0934 0 0
3:53 pm 15:53 Mostly Sunny 70 21.1 45 7.2 41 41 SE 9 15 29.93 1014 10 16.0934 0 0
4:53 pm 16:53 Sunny 71 21.7 47 8.3 42 42 SE 10 17 29.92 1013 10 16.0934 0 0
5:53 pm 17:53 Mostly Sunny 70 21 46 8 43 43 NNW 16 26 29.8 1009 10 16.0934 0 0
6:53 pm 18:53 Sunny 68 20 50 10 53 53 SSE 6 9 29.9 1012 10 16.0934 0 0
7:53 pm 19:53 Clear 63 17.2 49 9.4 60 60 SW 7 11 29.91 1013 10 16.0934 0 0
8:53 pm 20:53 Clear 61 16.1 46 7.8 58 58 SSE 5 7 29.92 1013 10 16.0934 0 0
9:53 pm 21:53 Clear 59 15 47 8.3 64 64 SSE 10 17 29.94 1014 10 16.0934 0 0
10:53 pm 22:53 Clear 57 13.9 47 8.3 69 69 SE 8 13 29.92 1013 10 16.0934 0 0
11:53 pm 23:53 Clear 51 10.6 45 7.2 80 80 E 8 13 29.91 1013 10 16.0934 0 0

Powered by AerisWeather